Weather History for EGFF - July, 2013

Change the Weather History Date:

Wednesday, July 31, 2013

  Actual Average Record
Temperature  
Mean Temperature 64 °F -  
Max Temperature 71 °F 68 °F 73 °F (1999)
Min Temperature 57 °F 54 °F 42 °F (2015)
Degree Days  
Heating Degree Days 1    
Growing Degree Days 14 (Base 50)    
Moisture  
Dew Point 61 °F    
Average Humidity 88    
Maximum Humidity 100    
Minimum Humidity 73    
Precipitation  
Precipitation 0.00 in 0.11 in - ()
Sea Level Pressure  
Sea Level Pressure 29.94 in    
Wind  
Wind Speed 8 mph ()    
Max Wind Speed 13 mph    
Max Gust Speed -    
Visibility 5.6 miles    
Events Rain    
Averages and records for this station are not official NWS values.
T = Trace of Precipitation, MM = Missing Value Source: Averaged Metar Reports

Daily Weather History Graph

Daily Weather History Graph

Search for Another Location

Airport or City:

Trip Planner

Search our weather history database for the weather conditions in past years. The results will help you decide how hot, cold, wet, or windy it might be!

Date:

Astronomy

Jul. 31, 2013 Rise Set
Actual Time 5:36 AM BST 9:02 PM BST
Civil Twilight 4:55 AM BST 9:42 PM BST
Nautical Twilight 4:00 AM BST 10:37 PM BST
Astronomical Twilight 2:43 AM BST 11:52 PM BST
Moon 12:24 AM BST (7/31) 4:06 PM BST (7/31)
Length of Visible Light 16h 47m
Length of Day
15h 26m
Waning Crescent, 34% of the Moon is Illuminated
Jul 31
Waning Crescent
Aug 6
New
Aug 14
First Quarter
Aug 21
Full
Aug 28
Last Quarter

Hourly Weather History & Observations

Time (BST) Temp. Dew Point Humidity Pressure Visibility Wind Dir Wind Speed Gust Speed Precip Events Conditions
12:20 AM 62.6 °F 59.0 °F 88% 29.98 in 6.2 mi West 12.7 mph - N/A   Mostly Cloudy
12:50 AM 62.6 °F 59.0 °F 88% 29.98 in 6.2 mi West 12.7 mph - N/A   Mostly Cloudy
1:20 AM 62.6 °F 59.0 °F 88% 29.98 in 6.2 mi West 11.5 mph - N/A   Mostly Cloudy
1:50 AM 62.6 °F 59.0 °F 88% 29.98 in 6.2 mi WSW 11.5 mph - N/A   Mostly Cloudy
2:20 AM 62.6 °F 59.0 °F 88% 29.95 in 6.2 mi West 12.7 mph - N/A   Mostly Cloudy
2:50 AM 62.6 °F 57.2 °F 82% 29.98 in 6.2 mi West 10.4 mph - N/A   Overcast
3:20 AM 60.8 °F 55.4 °F 82% 29.98 in 6.2 mi West 6.9 mph - N/A   Light Drizzle
3:50 AM 59.0 °F 55.4 °F 88% 29.98 in 4.3 mi WNW 6.9 mph - N/A   Drizzle
4:20 AM 57.2 °F 57.2 °F 100% 29.95 in - NW 4.6 mph - N/A Rain Light Rain
4:50 AM 57.2 °F 57.2 °F 100% 29.95 in - North 4.6 mph - N/A   Drizzle
5:20 AM 57.2 °F 57.2 °F 100% 29.95 in 1.9 mi NE 3.5 mph - N/A Rain Light Rain
5:50 AM 57.2 °F 57.2 °F 100% 29.95 in 3.1 mi ENE 4.6 mph - N/A Rain Light Rain
6:20 AM 57.2 °F 57.2 °F 100% 29.92 in 1.5 mi East 4.6 mph - N/A Rain Light Rain
6:50 AM 59.0 °F 59.0 °F 100% 29.92 in 1.9 mi East 6.9 mph - N/A Rain Rain
7:20 AM 60.8 °F 60.8 °F 100% 29.95 in 1.7 mi ESE 5.8 mph - N/A   Drizzle
7:50 AM 62.6 °F 62.6 °F 100% 29.95 in - SE 5.8 mph - N/A   Mostly Cloudy
8:20 AM 62.6 °F 62.6 °F 100% 29.95 in 3.7 mi SE 4.6 mph - N/A   Light Drizzle
8:50 AM 64.4 °F 64.4 °F 100% 29.95 in 6.2 mi SSW 4.6 mph - N/A   Mostly Cloudy
9:20 AM 66.2 °F 64.4 °F 94% 29.95 in 6.2 mi WSW 8.1 mph - N/A   Scattered Clouds
9:50 AM 68.0 °F 66.2 °F 94% 29.95 in 6.2 mi West 10.4 mph - N/A   Mostly Cloudy
10:20 AM 68.0 °F 66.2 °F 94% 29.95 in 6.2 mi West 9.2 mph - N/A   Scattered Clouds
10:50 AM 68.0 °F 64.4 °F 88% 29.95 in 6.2 mi West 6.9 mph - N/A   Mostly Cloudy
11:20 AM 68.0 °F 64.4 °F 88% 29.95 in 6.2 mi West 6.9 mph - N/A   Mostly Cloudy
11:50 AM 68.0 °F 64.4 °F 88% 29.95 in 6.2 mi SW 4.6 mph - N/A   Mostly Cloudy
12:20 PM 68.0 °F 66.2 °F 94% 29.95 in 6.2 mi WSW 4.6 mph - N/A   Mostly Cloudy
12:50 PM 68.0 °F 64.4 °F 88% 29.95 in 6.2 mi SSW 4.6 mph - N/A   Mostly Cloudy
1:20 PM 69.8 °F 64.4 °F 83% 29.95 in 6.2 mi SW 4.6 mph - N/A   Mostly Cloudy
1:50 PM 69.8 °F 62.6 °F 78% 29.95 in 5.6 mi SW 6.9 mph - N/A   Mostly Cloudy
2:20 PM 69.8 °F 62.6 °F 78% 29.95 in 6.2 mi SW 9.2 mph - N/A   Mostly Cloudy
2:50 PM 69.8 °F 62.6 °F 78% 29.95 in 6.2 mi WSW 8.1 mph - N/A   Mostly Cloudy
3:20 PM 69.8 °F 62.6 °F 78% 29.92 in 6.2 mi SSW 8.1 mph - N/A   Mostly Cloudy
3:50 PM 71.6 °F 62.6 °F 73% 29.92 in 6.2 mi SSW 9.2 mph - N/A   Mostly Cloudy
4:20 PM 69.8 °F 62.6 °F 78% 29.92 in 6.2 mi SSW 9.2 mph - N/A   Mostly Cloudy
4:50 PM 69.8 °F 62.6 °F 78% 29.92 in 6.2 mi SW 9.2 mph - N/A   Mostly Cloudy
5:20 PM 68.0 °F 62.6 °F 83% 29.92 in 6.2 mi SW 9.2 mph - N/A   Mostly Cloudy
5:50 PM 68.0 °F 62.6 °F 83% 29.92 in 6.2 mi SW 8.1 mph - N/A   Mostly Cloudy
6:20 PM 68.0 °F 62.6 °F 83% 29.92 in 6.2 mi SW 8.1 mph - N/A   Mostly Cloudy
6:50 PM 68.0 °F 62.6 °F 83% 29.92 in 6.2 mi SSW 8.1 mph - N/A   Mostly Cloudy
7:20 PM 68.0 °F 62.6 °F 83% 29.92 in 6.2 mi SSW 9.2 mph - N/A   Mostly Cloudy
7:50 PM 68.0 °F 62.6 °F 83% 29.92 in 6.2 mi SW 8.1 mph - N/A   Mostly Cloudy
8:20 PM 68.0 °F 62.6 °F 83% 29.92 in 6.2 mi SW 9.2 mph - N/A   Mostly Cloudy
8:50 PM 68.0 °F 62.6 °F 83% 29.92 in 6.2 mi SW 8.1 mph - N/A   Mostly Cloudy
9:20 PM 66.2 °F 62.6 °F 88% 29.92 in 6.2 mi SW 10.4 mph - N/A   Mostly Cloudy
9:50 PM 66.2 °F 60.8 °F 83% 29.92 in 6.2 mi SSW 8.1 mph - N/A   Mostly Cloudy
10:20 PM 66.2 °F 60.8 °F 83% 29.92 in 6.2 mi SSW 4.6 mph - N/A   Mostly Cloudy
10:50 PM 66.2 °F 60.8 °F 83% 29.92 in 6.2 mi SSW 5.8 mph - N/A   Mostly Cloudy
11:20 PM 66.2 °F 60.8 °F 83% 29.92 in 6.2 mi SSW 8.1 mph - N/A   Overcast
11:50 PM 66.2 °F 60.8 °F 83% 29.92 in 6.2 mi South 4.6 mph - N/A   Mostly Cloudy